ZHONGXING-19

Last updated on Thu Oct 30 2025 00:02:52 GMT+0000 (Coordinated Universal Time)

1 54230U 22148A 25302.56592057 -.00000069 00000+0 00000+0 0 9996 2 54230 0.0117 253.2744 0007910 339.7624 172.2602 1.00271531 11061
UTC large
Height (km)
Speed (km/s)
/
Latitude / Longitude
Inclination (degrees)
Orbital Period (minutes)
Azimuth
Elevation
Range (km)
Doppler Factor

Next 0 passes for location: London (51.5072 / 0.1276)

Sorry there are no passes over London.